BAW4648 KSAN-KLAX

Flight info

Callsign BAW4648
Flight time 0h 25m
Altitude 7500
Route STRAIGHT OUT DEPARTURE
Aircraft A388/J-S/L

Departure

Time 2026-04-25 14:29
Airport San Diego International Airport (KSAN)

Arrival

Time 2026-04-25 14:55
Airport Los Angeles International Airport (KLAX)
Time Latitude Longitude Altitude Speed Heading
2026-04-25 14:17 32.73449 -117.18544 34 ft 0 kts 15°
2026-04-25 14:23 32.73448 -117.18545 34 ft 2 kts 15°
2026-04-25 14:23 32.73427 -117.18551 33 ft 2 kts 15°
2026-04-25 14:23 32.73407 -117.18551 32 ft 3 kts 36°
2026-04-25 14:24 32.73386 -117.18562 32 ft 3 kts 72°
2026-04-25 14:24 32.73377 -117.18577 31 ft 3 kts 97°
2026-04-25 14:24 32.73376 -117.18582 31 ft 0 kts 101°
2026-04-25 14:26 32.73376 -117.18581 31 ft 1 kts 101°
2026-04-25 14:26 32.73373 -117.18562 32 ft 4 kts 101°
2026-04-25 14:26 32.73363 -117.18521 34 ft 7 kts 105°
2026-04-25 14:26 32.73344 -117.18443 36 ft 13 kts 106°
2026-04-25 14:27 32.73313 -117.18314 35 ft 20 kts 106°
2026-04-25 14:27 32.73271 -117.18143 35 ft 18 kts 106°
2026-04-25 14:27 32.73231 -117.17977 34 ft 24 kts 105°
2026-04-25 14:27 32.73188 -117.17801 35 ft 20 kts 106°
2026-04-25 14:28 32.73154 -117.17658 34 ft 21 kts 106°
2026-04-25 14:28 32.73075 -117.17541 34 ft 17 kts 150°
2026-04-25 14:28 32.73023 -117.17589 34 ft 7 kts 243°
2026-04-25 14:28 32.73029 -117.17625 33 ft 2 kts 280°
2026-04-25 14:29 32.73058 -117.17743 32 ft 48 kts 285°
2026-04-25 14:29 32.73233 -117.18477 35 ft 135 kts 286°
2026-04-25 14:29 32.73565 -117.19822 228 ft 193 kts 285°
2026-04-25 14:29 32.73988 -117.21524 854 ft 239 kts 285°
2026-04-25 14:30 32.74497 -117.23642 1439 ft 292 kts 284°
2026-04-25 14:30 32.75646 -117.28558 2629 ft 282 kts 283°
2026-04-25 14:30 32.76144 -117.30666 2905 ft 254 kts 283°
2026-04-25 14:31 32.76835 -117.32598 3155 ft 257 kts 298°
2026-04-25 14:31 32.77834 -117.34404 3305 ft 262 kts 301°
2026-04-25 14:31 32.78886 -117.36166 3305 ft 266 kts 307°
2026-04-25 14:31 32.80016 -117.37859 3325 ft 259 kts 306°
2026-04-25 14:32 32.81165 -117.39577 3009 ft 273 kts 306°
2026-04-25 14:32 32.82333 -117.41367 3317 ft 273 kts 305°
2026-04-25 14:32 32.83487 -117.43238 3500 ft 287 kts 303°
2026-04-25 14:32 32.84645 -117.45206 4092 ft 292 kts 303°
2026-04-25 14:33 32.85778 -117.47221 4887 ft 292 kts 302°
2026-04-25 14:33 32.86866 -117.49207 4940 ft 286 kts 302°
2026-04-25 14:33 32.87926 -117.51204 5324 ft 281 kts 301°
2026-04-25 14:33 32.88960 -117.53224 5951 ft 290 kts 300°
2026-04-25 14:34 32.90000 -117.55300 6501 ft 292 kts 300°
2026-04-25 14:34 32.91085 -117.57361 6976 ft 296 kts 301°
2026-04-25 14:34 32.92234 -117.59452 7253 ft 311 kts 302°
2026-04-25 14:34 32.93440 -117.61612 7378 ft 313 kts 302°
2026-04-25 14:35 32.94652 -117.63759 7435 ft 312 kts 302°
2026-04-25 14:35 32.95863 -117.65896 7478 ft 323 kts 302°
2026-04-25 14:35 32.97173 -117.68218 7495 ft 346 kts 302°
2026-04-25 14:35 32.98516 -117.70599 7498 ft 345 kts 302°
2026-04-25 14:36 32.99851 -117.72966 7490 ft 344 kts 302°
2026-04-25 14:36 33.01184 -117.75336 7487 ft 345 kts 302°
2026-04-25 14:36 33.02522 -117.77715 7485 ft 345 kts 302°
2026-04-25 14:36 33.03851 -117.80078 7481 ft 343 kts 302°
2026-04-25 14:37 33.05182 -117.82454 7483 ft 345 kts 302°
2026-04-25 14:37 33.06513 -117.84831 7481 ft 345 kts 302°
2026-04-25 14:37 33.07841 -117.87207 7482 ft 344 kts 302°
2026-04-25 14:37 33.09169 -117.89588 7483 ft 345 kts 302°
2026-04-25 14:38 33.10496 -117.91965 7484 ft 344 kts 302°
2026-04-25 14:38 33.11821 -117.94343 7485 ft 344 kts 302°
2026-04-25 14:38 33.13152 -117.96728 7484 ft 345 kts 302°
2026-04-25 14:38 33.14463 -117.99083 7485 ft 345 kts 302°
2026-04-25 14:39 33.15788 -118.01464 7487 ft 344 kts 302°
2026-04-25 14:39 33.17112 -118.03847 7481 ft 344 kts 302°
2026-04-25 14:39 33.18435 -118.06232 7482 ft 344 kts 302°
2026-04-25 14:39 33.19761 -118.08624 7478 ft 345 kts 302°
2026-04-25 14:40 33.21083 -118.11015 7480 ft 345 kts 302°
2026-04-25 14:40 33.22400 -118.13406 7482 ft 344 kts 302°
2026-04-25 14:40 33.23718 -118.15796 7481 ft 344 kts 302°
2026-04-25 14:40 33.25033 -118.18193 7486 ft 345 kts 302°
2026-04-25 14:41 33.26351 -118.20589 7479 ft 345 kts 302°
2026-04-25 14:41 33.27721 -118.22935 7301 ft 345 kts 309°
2026-04-25 14:41 33.29640 -118.24671 6989 ft 346 kts 328°
2026-04-25 14:41 33.31770 -118.26088 6377 ft 364 kts 330°
2026-04-25 14:42 33.33993 -118.27552 6074 ft 364 kts 329°
2026-04-25 14:42 33.35467 -118.28514 5954 ft 364 kts 330°
2026-04-25 14:42 33.38472 -118.30273 5649 ft 366 kts 341°
2026-04-25 14:42 33.40991 -118.30815 5567 ft 367 kts 352°
2026-04-25 14:43 33.43549 -118.30775 5522 ft 370 kts
2026-04-25 14:43 33.46106 -118.30367 5498 ft 370 kts
2026-04-25 14:43 33.48641 -118.29924 5495 ft 369 kts
2026-04-25 14:43 33.51193 -118.29458 5493 ft 373 kts
2026-04-25 14:44 33.53733 -118.28960 5529 ft 373 kts
2026-04-25 14:44 33.56282 -118.28360 5559 ft 372 kts 15°
2026-04-25 14:44 33.58593 -118.26956 5566 ft 375 kts 32°
2026-04-25 14:44 33.60762 -118.25209 5570 ft 375 kts 33°
2026-04-25 14:45 33.62928 -118.23496 5520 ft 367 kts 32°
2026-04-25 14:45 33.64982 -118.21872 5465 ft 340 kts 33°
2026-04-25 14:45 33.66851 -118.20316 5439 ft 315 kts 39°
2026-04-25 14:45 33.68156 -118.18337 5415 ft 292 kts 58°
2026-04-25 14:46 33.69316 -118.16414 5328 ft 276 kts 51°
2026-04-25 14:46 33.70506 -118.14678 5254 ft 262 kts 49°
2026-04-25 14:46 33.71652 -118.13044 5190 ft 249 kts 49°
2026-04-25 14:46 33.72747 -118.11489 5130 ft 238 kts 49°
2026-04-25 14:47 33.73807 -118.09989 4891 ft 234 kts 49°
2026-04-25 14:47 33.74510 -118.09004 4675 ft 233 kts 49°
2026-04-25 14:47 33.75981 -118.07141 4222 ft 232 kts 35°
2026-04-25 14:47 33.77382 -118.06190 3975 ft 228 kts 28°
2026-04-25 14:48 33.78781 -118.05335 3812 ft 223 kts 21°
2026-04-25 14:48 33.80286 -118.04923 3727 ft 227 kts 10°
2026-04-25 14:48 33.81908 -118.04652 3611 ft 236 kts
2026-04-25 14:48 33.83430 -118.05181 3522 ft 222 kts 333°
2026-04-25 14:49 33.84815 -118.06002 3143 ft 221 kts 334°
2026-04-25 14:49 33.86192 -118.06726 2860 ft 210 kts 336°
2026-04-25 14:49 33.87503 -118.07391 2664 ft 199 kts 336°
2026-04-25 14:49 33.88763 -118.08029 2448 ft 193 kts 336°
2026-04-25 14:50 33.90084 -118.08705 2657 ft 217 kts 336°
2026-04-25 14:50 33.91447 -118.09622 2769 ft 234 kts 316°
2026-04-25 14:50 33.92366 -118.11182 2662 ft 225 kts 300°
2026-04-25 14:50 33.93136 -118.12838 2538 ft 226 kts 292°
2026-04-25 14:51 33.93592 -118.14617 2546 ft 222 kts 279°
2026-04-25 14:51 33.93736 -118.16461 2649 ft 223 kts 267°
2026-04-25 14:51 33.93713 -118.18339 2661 ft 224 kts 267°
2026-04-25 14:51 33.93714 -118.20204 2450 ft 226 kts 270°
2026-04-25 14:52 33.93692 -118.22066 2203 ft 224 kts 266°
2026-04-25 14:52 33.93675 -118.23956 2031 ft 220 kts 272°
2026-04-25 14:52 33.93807 -118.25769 1925 ft 220 kts 272°
2026-04-25 14:52 33.93845 -118.27017 1892 ft 221 kts 270°
2026-04-25 14:53 33.93746 -118.29486 1808 ft 220 kts 267°
2026-04-25 14:53 33.93902 -118.31340 1665 ft 223 kts 276°
2026-04-25 14:53 33.94106 -118.33149 1360 ft 221 kts 275°
2026-04-25 14:53 33.94093 -118.34986 960 ft 217 kts 258°
2026-04-25 14:54 33.93891 -118.36691 618 ft 185 kts 262°
2026-04-25 14:54 33.93760 -118.38077 201 ft 149 kts 260°
2026-04-25 14:54 33.93650 -118.39110 124 ft 80 kts 264°
2026-04-25 14:54 33.93599 -118.39660 129 ft 51 kts 266°
2026-04-25 14:55 33.93664 -118.40010 124 ft 30 kts 280°
2026-04-25 14:55 33.93654 -118.40179 127 ft 18 kts 262°
2026-04-25 14:55 33.93646 -118.40283 132 ft 10 kts 268°
2026-04-25 14:55 33.93657 -118.40340 125 ft 4 kts 287°
2026-04-25 14:56 33.93667 -118.40365 122 ft 4 kts 293°
2026-04-25 14:56 33.93682 -118.40393 126 ft 3 kts 305°
2026-04-25 14:56 33.93702 -118.40417 128 ft 4 kts 316°
2026-04-25 14:56 33.93733 -118.40448 130 ft 8 kts 316°
2026-04-25 14:57 33.93757 -118.40507 126 ft 8 kts 291°
2026-04-25 14:57 33.93788 -118.40577 124 ft 11 kts 300°
2026-04-25 14:57 33.93811 -118.40667 127 ft 10 kts 277°
2026-04-25 14:57 33.93844 -118.40728 130 ft 8 kts 313°
2026-04-25 14:58 33.93890 -118.40782 123 ft 11 kts 317°
2026-04-25 14:58 33.93950 -118.40813 128 ft 5 kts 350°
2026-04-25 14:58 33.93991 -118.40818 128 ft 7 kts 353°
2026-04-25 14:58 33.94053 -118.40827 129 ft 10 kts 353°
2026-04-25 14:59 33.94103 -118.40857 122 ft 3 kts 316°
2026-04-25 14:59 33.94103 -118.40871 125 ft 1 kts 293°
2026-04-25 14:59 33.94102 -118.40873 124 ft 0 kts 290°
2026-04-25 14:59 33.94098 -118.40881 122 ft 2 kts 271°
2026-04-25 15:00 33.94092 -118.40905 127 ft 5 kts 263°
2026-04-25 15:00 33.94088 -118.40947 125 ft 4 kts 263°
2026-04-25 15:00 33.94087 -118.40953 125 ft 0 kts 263°